Find Local Weather

World > North America > United States > California

San Jose, California Regional Weather

Lat: 37.30N, Lon: 121.85W
Wx Zone: CAZ513
Feedback
Expires:201806180800;;713433
ASUS46 KSTO 180715
RWRCA 

NORTHERN AND CENTRAL CA REGIONAL WEATHER ROUNDUP
NATIONAL WEATHER SERVICE SACRAMENTO CA 
1200 AM PDT MON JUN 18 2018

NOTE: FAIR INDICATES FEW OR NO CLOUDS BELOW 12,000 FEET WITH NO
SIGNIFICANT WEATHER AND/OR OBSTRUCTIONS TO VISIBILITY.


CAZ006-505>513-180800-
BAY AREA
  
CITY           SKY/WX    TMP DP  RH WIND       PRES   REMARKS
SANTA ROSA     CLEAR     54  52  93 S5        29.99S                  
SAN RAFAEL     N/A       60  MM  MM MISG
NAPA           CLEAR     57  52  83 W9        29.99R                  
CONCORD        CLEAR     61  52  72 W6        30.00R                  
OAKLAND CITY   N/A      MM  MM  MM MISG
OAKLAND        MOCLDY    58  54  86 W9        30.02R                  
SAN FRAN CITY  N/A       57  MM  84 MISG
SAN FRAN ARPT  PTCLDY    61  51  70 SW6       30.01R                  
LIVERMORE        N/A    N/A N/A N/A MISG      30.00R                  
HAYWARD        CLOUDY    60  54  80 NW7       30.01R                  
REDWOOD CITY   N/A       59  MM  78 MISG
MOFFETT ARPT   CLEAR     60  55  83 NE8       30.01R                  
SAN JOSE ARPT  PTCLDY    61  55  81 N5        30.01R                  
$$

SKY/WX - Weather  TMP - Temperature  DP - Dewpoint  RH - Relative Humidity
WIND - Wind Direction/Speed PRES - Barometric Pressure